Location: *
(51.1248°S, 108.4023°W)
Time: 01:35:35
(UTC+00:00)

Cosmos 1656 - Pass Details

Date: 25 October 2021
Orbit: 799 x 848 km, 71.1° (Epoch: 30 November)

Event Time Altitude Azimuth Distance (km) Brightness Sun altitude
Exits shadow 10:08:42 - 5° (N) 3,036 6.2 -14.3°
Reaches altitude 10° 10:10:22 10° 12° (NNE) 2,456 5.8 -14.1°
Maximum altitude 10:15:22 34° 74° (ENE) 1,384 5.2 -13.5°
Drops below altitude 10° 10:20:28 10° 136° (SE) 2,504 7.6 -12.9°
Sets 10:23:09 0° 145° (SE) 3,450 8.5 -12.6°
